This demonstration page uses our WeatherBlox Daily Observations layout. Learn more.

Left ArrowRight Arrow

38.20091, -84.87328

Hourly Observations for April 1, 2022

Temp ( °F °C ) Dew Point ( °F °C ) Humidity (%) Winds ( mph kmh ) Pressure ( in mb ) Visibility ( mi km ) Precip ( " mm )
12:40 am 00:40 Cloudy 40 4.4 36 2.2 86 86 W 7 11 29.83 1010 10 16 0.01 0.25
12:53 am 00:53 Cloudy 40 4.4 36 2.2 86 86 W 9 15 29.81 1010 10 16 0.01 0.25
1:53 am 01:53 Cloudy 39 3.9 35 1.7 86 86 W 8 13 29.82 1010 10 16 0.00 0.00
2:53 am 02:53 Cloudy 39 3.9 34 1.1 82 82 W 6 9 29.82 1010 10 16 0.00 0.00
3:53 am 03:53 Cloudy 38 3.3 35 1.7 89 89 W 7 11 29.83 1010 10 16 0.00 0.00
4:20 am 04:20 Cloudy with Light Rain 37 2.8 34 1.1 89 89 W 7 11 29.86 1011 5 8 0.01 0.25
4:45 am 04:45 Cloudy 37 2.8 35 1.7 93 93 W 7 11 29.87 1012 10 16 0.01 0.25
4:53 am 04:53 Cloudy 37 2.8 35 1.7 93 93 W 8 13 29.85 1011 10 16 0.01 0.25
5:27 am 05:27 Cloudy with Light Rain 37 2.8 35 1.7 93 93 W 10 17 29.88 1012 8 13 0.00 0.00
5:39 am 05:39 Cloudy with Light Rain 36 2.2 34 1.1 93 93 WNW 9 15 29.89 1012 7 11 0.01 0.25
5:48 am 05:48 Cloudy with Light Snow 36 2 32 0 87 87 W 13 20 29.90 1013 3 4 0.01 0.25
5:53 am 05:53 Cloudy with Light Snow 35 1.7 32 0 89 89 W 12 19 29.88 1012 2 3 0.02 0.51
5:59 am 05:59 Cloudy with Light Snow 34 1.1 33 0.6 97 97 W 9 15 29.91 1013 2 3 0.00 0.00
6:18 am 06:18 Cloudy with Light Snow 34 1.1 32 0 92 92 W 8 13 29.92 1013 3 5 0.00 0.00
6:51 am 06:51 Cloudy 36 2 34 1 93 93 W 7 11 29.92 1013 9 14 0.01 0.25
6:53 am 06:53 Cloudy 35 1.7 33 0.6 93 93 W 6 9 29.91 1013 10 16 0.01 0.25
7:53 am 07:53 Cloudy 35 1.7 33 0.6 93 93 WNW 6 9 29.94 1014 10 16 0.00 0.00
8:37 am 08:37 Cloudy 36 2.2 33 0.6 89 89 WNW 12 19 29.99 1016 9 14 0.00 0.00
8:46 am 08:46 Cloudy 35 1.7 31 -0.6 85 85 WNW 10 17 30.01 1016 9 14 0.00 0.00
8:53 am 08:53 Cloudy with Light Snow 35 1.7 32 0 89 89 WNW 7 11 29.98 1015 7 11 0.00 0.00
9:00 am 09:00 Cloudy 35 1.7 32 0 89 89 WNW 6 9 30.02 1016 9 14 0.00 0.00
9:53 am 09:53 Cloudy 38 3.3 30 -1.1 73 73 WNW 10 17 30.02 1017 10 16 0.00 0.00
10:53 am 10:53 Cloudy 41 5 28 -2.2 60 60 WNW 9 15 30.05 1018 10 16 0.00 0.00
11:53 am 11:53 Cloudy 41 5 26 -3.3 55 55 NW 9 15 30.07 1018 10 16 0.00 0.00
12:53 pm 12:53 Cloudy 41 5 26 -3.3 55 55 WNW 10 17 30.10 1019 10 16 0.00 0.00
1:53 pm 13:53 Cloudy 43 6.1 26 -3.3 51 51 WNW 9 15 30.11 1020 10 16 0.00 0.00
2:53 pm 14:53 Cloudy 43 6.1 26 -3.3 51 51 W 8 13 30.11 1020 10 16 0.00 0.00
3:53 pm 15:53 Cloudy 44 6.7 26 -3.3 49 49 WNW 8 13 30.11 1020 10 16 0.00 0.00
4:53 pm 16:53 Mostly Cloudy 47 8.3 27 -2.8 46 46 WNW 7 11 30.11 1020 10 16 0.00 0.00
5:53 pm 17:53 Sunny 47 8.3 27 -2.8 46 46 NW 7 11 30.13 1020 10 16 0.00 0.00
6:53 pm 18:53 Sunny 46 7.8 27 -2.8 47 47 W 5 7 30.14 1021 10 16 0.00 0.00
7:53 pm 19:53 Sunny 44 6.7 27 -2.8 51 51 NW 3 6 30.15 1021 10 16 0.00 0.00
8:53 pm 20:53 Clear 37 2.8 30 -1.1 76 76 Calm 30.16 1021 10 16 0.00 0.00
9:53 pm 21:53 Clear 34 1.1 29 -1.7 82 82 Calm 30.17 1022 10 16 0.00 0.00
10:53 pm 22:53 Clear 33 0.6 28 -2.2 82 82 Calm 30.18 1022 10 16 0.00 0.00
11:53 pm 23:53 Clear 33 0.6 27 -2.8 78 78 Calm 30.18 1022 10 16 0.00 0.00

Powered by AerisWeather